Location: Arthez
(43.0833°N, 0.2500°W)
Time: 06:39:00
(UTC+00:00)

Cosmos 304 Rocket - Pass Details

Date: 30 May 2022
Orbit: 679 x 686 km, 74.0° (Epoch: 03 July)

Event Time Altitude Azimuth Distance (km) Brightness Sun altitude
Exits shadow 02:06:27 - 278° (W) 2,301 6.2 -18.8°
Reaches altitude 10° 02:07:28 10° 289° (WNW) 2,137 6.2 -18.7°
Maximum altitude 02:09:10 12° 309° (NW) 2,026 6.3 -18.5°
Drops below altitude 10° 02:10:52 10° 330° (NNW) 2,142 6.7 -18.4°
Sets 02:14:52 0° 3° (N) 3,063 8.2 -18.0°
